Year,Month,Day,Hour,Minute,Value (Times are PST for temperature in C)
2017,01,09,00,00,5.10
2017,01,09,00,01,5.10
2017,01,09,00,02,5.10
2017,01,09,00,03,5.10
2017,01,09,00,04,5.10
2017,01,09,00,05,5.10
2017,01,09,00,06,5.10
2017,01,09,00,07,5.10
2017,01,09,00,08,5.10
2017,01,09,00,09,5.20
2017,01,09,00,10,5.20
2017,01,09,00,11,5.20
2017,01,09,00,12,5.20
2017,01,09,00,13,5.20
2017,01,09,00,14,5.20
2017,01,09,00,15,5.20
2017,01,09,00,16,5.20
2017,01,09,00,17,5.20
2017,01,09,00,18,5.20
2017,01,09,00,19,5.20
2017,01,09,00,20,5.20
2017,01,09,00,21,5.20
2017,01,09,00,22,5.20
2017,01,09,00,23,5.20
2017,01,09,00,24,5.20
2017,01,09,00,25,5.20
2017,01,09,00,26,5.20
2017,01,09,00,27,5.20
2017,01,09,00,28,5.20
2017,01,09,00,29,5.20
2017,01,09,00,30,5.10
2017,01,09,00,31,5.10
2017,01,09,00,32,5.10
2017,01,09,00,33,5.10
2017,01,09,00,34,5.10
2017,01,09,00,35,5.10
2017,01,09,00,36,5.10
2017,01,09,00,37,5.10
2017,01,09,00,38,5.10
2017,01,09,00,39,5.10
2017,01,09,00,40,5.10
2017,01,09,00,41,5.10
2017,01,09,00,42,5.10
2017,01,09,00,43,5.10
2017,01,09,00,44,5.10
2017,01,09,00,45,5.10
2017,01,09,00,46,5.10
2017,01,09,00,47,5.10
2017,01,09,00,48,5.10
2017,01,09,00,49,5.10
2017,01,09,00,50,5.10
2017,01,09,00,51,5.10
2017,01,09,00,52,5.10
2017,01,09,00,53,5.10
2017,01,09,00,54,5.10
2017,01,09,00,55,5.00
2017,01,09,00,56,5.00
2017,01,09,00,57,5.00
2017,01,09,00,58,5.00
2017,01,09,00,59,5.00
2017,01,09,01,00,5.00
2017,01,09,01,01,5.00
2017,01,09,01,02,5.00
2017,01,09,01,03,5.00
2017,01,09,01,04,5.00
2017,01,09,01,05,5.00
2017,01,09,01,06,5.00
2017,01,09,01,07,4.90
2017,01,09,01,08,4.90
2017,01,09,01,09,4.90
2017,01,09,01,10,4.90
2017,01,09,01,11,4.90
2017,01,09,01,12,4.90
2017,01,09,01,13,4.90
2017,01,09,01,14,5.00
2017,01,09,01,15,5.00
2017,01,09,01,16,5.00
2017,01,09,01,17,5.00
2017,01,09,01,18,5.00
2017,01,09,01,19,5.00
2017,01,09,01,20,5.00
2017,01,09,01,21,5.00
2017,01,09,01,22,5.00
2017,01,09,01,23,4.90
2017,01,09,01,24,4.90
2017,01,09,01,25,4.90
2017,01,09,01,26,4.90
2017,01,09,01,27,4.90
2017,01,09,01,28,4.90
2017,01,09,01,29,4.90
2017,01,09,01,30,4.90
2017,01,09,01,31,4.90
2017,01,09,01,32,4.90
2017,01,09,01,33,4.90
2017,01,09,01,34,4.90
2017,01,09,01,35,4.90
2017,01,09,01,36,4.90
2017,01,09,01,37,4.90
2017,01,09,01,38,4.80
2017,01,09,01,39,4.80
2017,01,09,01,40,4.80
2017,01,09,01,41,4.80
2017,01,09,01,42,4.90
2017,01,09,01,43,4.90
2017,01,09,01,44,4.90
2017,01,09,01,45,4.90
2017,01,09,01,46,4.90
2017,01,09,01,47,4.90
2017,01,09,01,48,4.90
2017,01,09,01,49,4.90
2017,01,09,01,50,4.90
2017,01,09,01,51,4.90
2017,01,09,01,52,4.90
2017,01,09,01,53,4.90
2017,01,09,01,54,4.90
2017,01,09,01,55,4.90
2017,01,09,01,56,4.90
2017,01,09,01,57,4.90
2017,01,09,01,58,5.00
2017,01,09,01,59,4.90
2017,01,09,02,00,4.90
2017,01,09,02,01,4.90
2017,01,09,02,02,4.90
2017,01,09,02,03,4.90
2017,01,09,02,04,5.00
2017,01,09,02,05,5.00
2017,01,09,02,06,5.00
2017,01,09,02,07,5.00
2017,01,09,02,08,5.10
2017,01,09,02,09,5.10
2017,01,09,02,10,5.10
2017,01,09,02,11,5.10
2017,01,09,02,12,5.10
2017,01,09,02,13,5.10
2017,01,09,02,14,5.10
2017,01,09,02,15,5.10
2017,01,09,02,16,5.10
2017,01,09,02,17,5.20
2017,01,09,02,18,5.20
2017,01,09,02,19,5.20
2017,01,09,02,20,5.20
2017,01,09,02,21,5.20
2017,01,09,02,22,5.20
2017,01,09,02,23,5.20
2017,01,09,02,24,5.30
2017,01,09,02,25,5.30
2017,01,09,02,26,5.30
2017,01,09,02,27,5.30
2017,01,09,02,28,5.30
2017,01,09,02,29,5.20
2017,01,09,02,30,5.00
2017,01,09,02,31,4.90
2017,01,09,02,32,4.70
2017,01,09,02,33,4.60
2017,01,09,02,34,4.40
2017,01,09,02,35,4.30
2017,01,09,02,36,4.20
2017,01,09,02,37,4.10
2017,01,09,02,38,4.00
2017,01,09,02,39,3.90
2017,01,09,02,40,3.80
2017,01,09,02,41,3.80
2017,01,09,02,42,3.70
2017,01,09,02,43,3.70
2017,01,09,02,44,3.70
2017,01,09,02,45,3.80
2017,01,09,02,46,3.80
2017,01,09,02,47,3.80
2017,01,09,02,48,3.80
2017,01,09,02,49,3.80
2017,01,09,02,50,3.80
2017,01,09,02,51,3.80
2017,01,09,02,52,3.80
2017,01,09,02,53,3.80
2017,01,09,02,54,3.80
2017,01,09,02,55,3.80
2017,01,09,02,56,3.80
2017,01,09,02,57,3.80
2017,01,09,02,58,3.80
2017,01,09,02,59,3.80
2017,01,09,03,00,3.80
2017,01,09,03,01,3.80
2017,01,09,03,02,3.80
2017,01,09,03,03,3.80
2017,01,09,03,04,3.80
2017,01,09,03,05,3.80
2017,01,09,03,06,3.80
2017,01,09,03,07,3.80
2017,01,09,03,08,3.80
2017,01,09,03,09,3.80
2017,01,09,03,10,3.80
2017,01,09,03,11,3.80
2017,01,09,03,12,3.80
2017,01,09,03,13,3.80
2017,01,09,03,14,3.70
2017,01,09,03,15,3.70
2017,01,09,03,16,3.70
2017,01,09,03,17,3.60
2017,01,09,03,18,3.60
2017,01,09,03,19,3.60
2017,01,09,03,20,3.60
2017,01,09,03,21,3.60
2017,01,09,03,22,3.60
2017,01,09,03,23,3.50
2017,01,09,03,24,3.50
2017,01,09,03,25,3.50
2017,01,09,03,26,3.40
2017,01,09,03,27,3.40
2017,01,09,03,28,3.40
2017,01,09,03,29,3.40
2017,01,09,03,30,3.40
2017,01,09,03,31,3.40
2017,01,09,03,32,3.40
2017,01,09,03,33,3.40
2017,01,09,03,34,3.40
2017,01,09,03,35,3.40
2017,01,09,03,36,3.40
2017,01,09,03,37,3.40
2017,01,09,03,38,3.40
2017,01,09,03,39,3.40
2017,01,09,03,40,3.40
2017,01,09,03,41,3.40
2017,01,09,03,42,3.40
2017,01,09,03,43,3.40
2017,01,09,03,44,3.40
2017,01,09,03,45,3.40
2017,01,09,03,46,3.40
2017,01,09,03,47,3.40
2017,01,09,03,48,3.40
2017,01,09,03,49,3.50
2017,01,09,03,50,3.50
2017,01,09,03,51,3.50
2017,01,09,03,52,3.60
2017,01,09,03,53,3.60
2017,01,09,03,54,3.60
2017,01,09,03,55,3.60
2017,01,09,03,56,3.60
2017,01,09,03,57,3.60
2017,01,09,03,58,3.60
2017,01,09,03,59,3.60
2017,01,09,04,00,3.70
2017,01,09,04,01,3.70
2017,01,09,04,02,3.70
2017,01,09,04,03,3.70
2017,01,09,05,04,3.70
2017,01,09,05,05,3.70
2017,01,09,05,06,3.70
2017,01,09,05,07,3.70
2017,01,09,05,08,3.70
2017,01,09,05,09,3.70
2017,01,09,05,10,3.70
2017,01,09,05,11,3.70
2017,01,09,05,12,3.70
2017,01,09,05,13,3.70
2017,01,09,05,14,3.70
2017,01,09,05,15,3.70
2017,01,09,05,16,3.70
2017,01,09,05,17,3.70
2017,01,09,05,18,3.70
2017,01,09,05,19,3.70
2017,01,09,05,20,3.70
2017,01,09,05,21,3.70
2017,01,09,05,22,3.70
2017,01,09,05,23,3.70
2017,01,09,05,24,3.70
2017,01,09,05,25,3.70
2017,01,09,05,26,3.70
2017,01,09,05,27,3.70
2017,01,09,05,28,3.70
2017,01,09,05,29,3.70
2017,01,09,05,30,3.70
2017,01,09,05,31,3.70
2017,01,09,05,32,3.70
2017,01,09,05,33,3.70
2017,01,09,05,34,3.70
2017,01,09,05,35,3.70
2017,01,09,05,36,3.70
2017,01,09,05,37,3.70
2017,01,09,05,38,3.70
2017,01,09,05,39,3.70
2017,01,09,05,40,3.70
2017,01,09,05,41,3.70
2017,01,09,05,42,3.60
2017,01,09,05,43,3.60
2017,01,09,05,44,3.60
2017,01,09,05,45,3.60
2017,01,09,05,46,3.60
2017,01,09,05,47,3.60
2017,01,09,05,48,3.60
2017,01,09,05,49,3.50
2017,01,09,05,50,3.50
2017,01,09,05,51,3.50
2017,01,09,05,52,3.50
2017,01,09,05,53,3.50
2017,01,09,05,54,3.40
2017,01,09,05,55,3.40
2017,01,09,05,56,3.40
2017,01,09,05,57,3.40
2017,01,09,05,58,3.40
2017,01,09,05,59,3.40
2017,01,09,06,00,3.30
2017,01,09,06,01,3.30
2017,01,09,06,02,3.30
2017,01,09,06,03,3.30
2017,01,09,06,04,3.30
2017,01,09,06,05,3.30
2017,01,09,06,06,3.30
2017,01,09,06,07,3.30
2017,01,09,06,08,3.30
2017,01,09,06,09,3.30
2017,01,09,06,10,3.30
2017,01,09,06,11,3.30
2017,01,09,06,12,3.30
2017,01,09,06,13,3.30
2017,01,09,06,14,3.30
2017,01,09,06,15,3.30
2017,01,09,06,16,3.30
2017,01,09,06,17,3.30
2017,01,09,06,18,3.30
2017,01,09,06,19,3.30
2017,01,09,06,20,3.30
2017,01,09,06,21,3.30
2017,01,09,06,22,3.30
2017,01,09,06,23,3.30
2017,01,09,06,24,3.30
2017,01,09,06,25,3.30
2017,01,09,06,26,3.30
2017,01,09,06,27,3.30
2017,01,09,06,28,3.30
2017,01,09,06,29,3.30
2017,01,09,06,30,3.30
2017,01,09,06,31,3.30
2017,01,09,06,32,3.30
2017,01,09,06,33,3.30
2017,01,09,06,34,3.30
2017,01,09,06,35,3.30
2017,01,09,06,36,3.30
2017,01,09,06,37,3.30
2017,01,09,06,38,3.30
2017,01,09,06,39,3.30
2017,01,09,06,40,3.30
2017,01,09,06,41,3.30
2017,01,09,06,42,3.30
2017,01,09,06,43,3.30
2017,01,09,06,44,3.30
2017,01,09,06,45,3.30
2017,01,09,06,46,3.30
2017,01,09,06,47,3.30
2017,01,09,06,48,3.30
2017,01,09,06,49,3.30
2017,01,09,06,50,3.30
2017,01,09,06,51,3.30
2017,01,09,06,52,3.30
2017,01,09,06,53,3.30
2017,01,09,06,54,3.30
2017,01,09,06,55,3.30
2017,01,09,06,56,3.30
2017,01,09,06,57,3.30
2017,01,09,06,58,3.30
2017,01,09,06,59,3.30
2017,01,09,09,31,3.70
2017,01,09,09,32,3.70
2017,01,09,09,33,3.80
2017,01,09,09,34,3.90
2017,01,09,09,35,4.00
2017,01,09,09,36,4.10
2017,01,09,09,37,4.10
2017,01,09,09,38,4.20
2017,01,09,09,39,4.30
2017,01,09,09,40,4.30
2017,01,09,09,41,4.40
2017,01,09,09,42,4.40
2017,01,09,09,43,4.40
2017,01,09,09,44,4.50
2017,01,09,09,45,4.50
2017,01,09,09,46,4.50
2017,01,09,09,47,4.60
2017,01,09,09,48,4.60
2017,01,09,09,49,4.60
2017,01,09,09,50,4.60
2017,01,09,09,51,4.60
2017,01,09,09,52,4.60
2017,01,09,09,53,4.70
2017,01,09,09,54,4.70
2017,01,09,09,55,4.70
2017,01,09,09,56,4.70
2017,01,09,09,57,4.80
2017,01,09,09,58,4.80
2017,01,09,09,59,4.80
2017,01,09,10,00,4.80
2017,01,09,10,01,4.90
2017,01,09,10,02,4.90
2017,01,09,10,03,4.90
2017,01,09,10,04,4.90
2017,01,09,10,05,4.90
2017,01,09,10,06,5.00
2017,01,09,10,07,5.00
2017,01,09,10,08,5.00
2017,01,09,10,09,5.10
2017,01,09,10,10,5.10
2017,01,09,10,11,5.20
2017,01,09,10,12,5.20
2017,01,09,10,13,5.30
2017,01,09,10,14,5.30
2017,01,09,10,15,5.30
2017,01,09,10,16,5.40
2017,01,09,10,17,5.40
2017,01,09,10,18,5.40
2017,01,09,10,19,5.40
2017,01,09,10,20,5.40
2017,01,09,10,21,5.50
2017,01,09,10,22,5.50
2017,01,09,10,23,5.50
2017,01,09,10,24,5.60
2017,01,09,10,25,5.60
2017,01,09,10,26,5.60
2017,01,09,10,27,5.60
2017,01,09,10,28,5.60
2017,01,09,10,29,5.60
2017,01,09,10,30,5.60
2017,01,09,10,31,5.70
2017,01,09,10,32,5.70
2017,01,09,10,33,5.70
2017,01,09,10,34,5.70
2017,01,09,10,35,5.70
2017,01,09,10,36,5.70
2017,01,09,10,37,5.70
2017,01,09,10,38,5.70
2017,01,09,10,39,5.70
2017,01,09,10,40,5.70
2017,01,09,10,41,5.70
2017,01,09,10,42,5.60
2017,01,09,10,43,5.60
2017,01,09,10,44,5.60
2017,01,09,10,45,5.60
2017,01,09,10,46,5.60
2017,01,09,10,47,5.60
2017,01,09,10,48,5.60
2017,01,09,10,49,5.60
2017,01,09,10,50,5.60
2017,01,09,10,51,5.60
2017,01,09,10,52,5.60
2017,01,09,10,53,5.60
2017,01,09,10,54,5.60
2017,01,09,10,55,5.60
2017,01,09,10,56,5.70
2017,01,09,10,57,5.70
2017,01,09,10,58,5.70
2017,01,09,10,59,5.70
2017,01,09,11,00,5.70
2017,01,09,11,01,5.70
2017,01,09,11,02,5.70
2017,01,09,11,03,5.70
2017,01,09,11,04,5.80
2017,01,09,11,05,5.80
2017,01,09,11,06,5.80
2017,01,09,11,07,5.80
2017,01,09,11,08,5.80
2017,01,09,11,09,5.90
2017,01,09,11,10,5.90
2017,01,09,11,11,5.90
2017,01,09,11,12,6.00
2017,01,09,11,13,6.00
2017,01,09,11,14,6.10
2017,01,09,11,15,6.10
2017,01,09,11,16,6.10
2017,01,09,11,17,6.20
2017,01,09,11,18,6.20
2017,01,09,11,19,6.20
2017,01,09,11,20,6.20
2017,01,09,11,21,6.30
2017,01,09,11,22,6.30
2017,01,09,11,23,6.30
2017,01,09,11,24,6.30
2017,01,09,11,25,6.30
2017,01,09,11,26,6.30
2017,01,09,11,27,6.30
2017,01,09,11,28,6.30
2017,01,09,11,29,6.30
2017,01,09,11,30,6.30
2017,01,09,11,31,6.30
2017,01,09,11,32,6.30
2017,01,09,11,33,6.20
2017,01,09,11,34,6.20
2017,01,09,11,35,6.10
2017,01,09,11,36,6.10
2017,01,09,11,37,6.10
2017,01,09,11,38,6.00
2017,01,09,11,39,6.00
2017,01,09,11,40,6.00
2017,01,09,11,41,6.00
2017,01,09,11,42,6.00
2017,01,09,11,43,6.00
2017,01,09,11,44,6.00
2017,01,09,11,45,5.90
2017,01,09,11,46,5.90
2017,01,09,11,47,5.90
2017,01,09,11,48,5.90
2017,01,09,11,49,5.90
2017,01,09,11,50,5.90
2017,01,09,11,51,5.90
2017,01,09,11,52,5.90
2017,01,09,11,53,5.90
2017,01,09,11,54,5.90
2017,01,09,11,55,5.90
2017,01,09,11,56,5.90
2017,01,09,11,57,6.00
2017,01,09,11,58,6.10
2017,01,09,11,59,6.10
2017,01,09,12,00,6.10
2017,01,09,12,01,6.20
2017,01,09,12,02,6.30
2017,01,09,12,03,6.30
2017,01,09,12,04,6.30
2017,01,09,12,05,6.30
2017,01,09,12,06,6.30
2017,01,09,12,07,6.30
2017,01,09,12,08,6.40
2017,01,09,12,09,6.50
2017,01,09,12,10,6.60
2017,01,09,12,11,6.60
2017,01,09,12,12,6.70
2017,01,09,12,13,6.70
2017,01,09,12,14,6.70
2017,01,09,12,15,6.80
2017,01,09,12,16,6.80
2017,01,09,12,17,6.80
2017,01,09,12,18,6.80
2017,01,09,12,19,6.80
2017,01,09,12,20,6.80
2017,01,09,12,21,6.80
2017,01,09,12,22,6.80
2017,01,09,12,23,6.80
2017,01,09,12,24,6.80
2017,01,09,12,25,6.80
2017,01,09,12,26,6.90
2017,01,09,12,27,6.90
2017,01,09,12,28,6.90
2017,01,09,12,29,6.90
2017,01,09,12,30,6.90
2017,01,09,12,31,6.90
2017,01,09,12,32,6.90
2017,01,09,12,33,6.90
2017,01,09,12,34,6.90
2017,01,09,12,35,6.80
2017,01,09,12,36,6.80
2017,01,09,12,37,6.80
2017,01,09,12,38,6.80
2017,01,09,12,39,6.80
2017,01,09,12,40,6.80
2017,01,09,12,41,6.80
2017,01,09,12,42,6.80
2017,01,09,12,43,6.80
2017,01,09,12,44,6.80
2017,01,09,12,45,6.80
2017,01,09,12,46,6.80
2017,01,09,12,47,6.80
2017,01,09,12,48,6.70
2017,01,09,12,49,6.70
2017,01,09,12,50,6.70
2017,01,09,12,51,6.60
2017,01,09,12,52,6.60
2017,01,09,12,53,6.50
2017,01,09,12,54,6.50
2017,01,09,12,55,6.50
2017,01,09,12,56,6.40
2017,01,09,12,57,6.40
2017,01,09,12,58,6.40
2017,01,09,12,59,6.30
2017,01,09,13,00,6.40
2017,01,09,13,01,6.40
2017,01,09,13,02,6.30
2017,01,09,13,03,6.30
2017,01,09,13,04,6.30
2017,01,09,13,05,6.30
2017,01,09,13,06,6.20
2017,01,09,13,07,6.20
2017,01,09,13,08,6.20
2017,01,09,13,09,6.10
2017,01,09,13,10,6.10
2017,01,09,13,11,6.10
2017,01,09,13,12,6.10
2017,01,09,13,13,6.00
2017,01,09,13,14,6.00
2017,01,09,13,15,6.00
2017,01,09,13,16,6.00
2017,01,09,13,17,5.90
2017,01,09,13,18,5.90
2017,01,09,13,19,5.90
2017,01,09,13,20,5.90
2017,01,09,13,21,6.00
2017,01,09,13,22,6.00
2017,01,09,13,23,6.00
2017,01,09,13,24,6.00
2017,01,09,13,25,6.00
2017,01,09,13,26,6.00
2017,01,09,13,27,6.00
2017,01,09,13,28,6.00
2017,01,09,13,29,6.00
2017,01,09,13,30,6.00
2017,01,09,13,31,6.00
2017,01,09,13,32,6.00
2017,01,09,13,33,6.00
2017,01,09,13,34,5.90
2017,01,09,13,35,5.90
2017,01,09,13,36,5.90
2017,01,09,13,37,5.90
2017,01,09,13,38,5.90
2017,01,09,13,39,5.90
2017,01,09,13,40,5.90
2017,01,09,13,41,5.90
2017,01,09,13,42,6.00
2017,01,09,13,43,6.00
2017,01,09,13,44,6.00
2017,01,09,13,45,6.00
2017,01,09,13,46,6.00
2017,01,09,13,47,6.00
2017,01,09,13,48,6.00
2017,01,09,13,49,6.00
2017,01,09,13,50,6.10
2017,01,09,13,51,6.10
2017,01,09,13,52,6.10
2017,01,09,13,53,6.10
2017,01,09,13,54,6.10
2017,01,09,13,55,6.10
2017,01,09,13,56,6.10
2017,01,09,13,57,6.10
2017,01,09,13,58,6.10
2017,01,09,13,59,6.10
2017,01,09,14,00,6.10
2017,01,09,14,01,6.10
2017,01,09,14,02,6.10
2017,01,09,14,03,6.10
2017,01,09,14,04,6.10
2017,01,09,14,05,6.00
2017,01,09,14,06,6.00
2017,01,09,14,07,6.00
2017,01,09,14,08,6.00
2017,01,09,14,09,6.00
2017,01,09,14,10,6.00
2017,01,09,14,11,6.10
2017,01,09,14,12,6.10
2017,01,09,14,13,6.10
2017,01,09,14,14,6.10
2017,01,09,14,15,6.20
2017,01,09,14,16,6.20
2017,01,09,14,17,6.20
2017,01,09,14,18,6.20
2017,01,09,14,19,6.20
2017,01,09,14,20,6.30
2017,01,09,14,21,6.30
2017,01,09,14,22,6.30
2017,01,09,14,23,6.30
2017,01,09,14,24,6.30
2017,01,09,14,25,6.40
2017,01,09,14,26,6.30
2017,01,09,14,27,6.30
2017,01,09,14,28,6.30
2017,01,09,14,29,6.30
2017,01,09,14,30,6.30
2017,01,09,14,31,6.30
2017,01,09,14,32,6.20
2017,01,09,14,33,6.20
2017,01,09,14,34,6.20
2017,01,09,14,35,6.20
2017,01,09,14,36,6.20
2017,01,09,14,37,6.10
2017,01,09,14,38,6.10
2017,01,09,14,39,6.10
2017,01,09,14,40,6.00
2017,01,09,14,41,6.00
2017,01,09,14,42,6.00
2017,01,09,14,43,5.90
2017,01,09,14,44,5.90
2017,01,09,14,45,5.90
2017,01,09,14,46,5.80
2017,01,09,14,47,5.80
2017,01,09,14,48,5.80
2017,01,09,14,49,5.70
2017,01,09,14,50,5.70
2017,01,09,14,51,5.70
2017,01,09,14,52,5.70
2017,01,09,14,53,5.60
2017,01,09,14,54,5.60
2017,01,09,14,55,5.60
2017,01,09,14,56,5.60
2017,01,09,14,57,5.60
2017,01,09,14,58,5.60
2017,01,09,14,59,5.60
2017,01,09,15,00,5.60
2017,01,09,15,01,5.60
2017,01,09,15,02,5.50
2017,01,09,15,03,5.50
2017,01,09,15,04,5.50
2017,01,09,15,05,5.50
2017,01,09,15,06,5.40
2017,01,09,15,07,5.40
2017,01,09,15,08,5.40
2017,01,09,15,09,5.40
2017,01,09,15,10,5.40
2017,01,09,15,11,5.40
2017,01,09,15,12,5.40
2017,01,09,15,13,5.40
2017,01,09,15,14,5.40
2017,01,09,15,15,5.40
2017,01,09,15,16,5.40
2017,01,09,15,17,5.40
2017,01,09,15,18,5.40
2017,01,09,15,19,5.40
2017,01,09,15,20,5.40
2017,01,09,15,21,5.40
2017,01,09,15,22,5.40
2017,01,09,15,23,5.40
2017,01,09,15,24,5.40
2017,01,09,15,25,5.40
2017,01,09,15,26,5.40
2017,01,09,15,27,5.40
2017,01,09,15,28,5.40
2017,01,09,15,29,5.40
2017,01,09,15,30,5.40
2017,01,09,15,31,5.40
2017,01,09,15,32,5.40
2017,01,09,15,33,5.40
2017,01,09,15,34,5.40
2017,01,09,15,35,5.40
2017,01,09,15,36,5.40
2017,01,09,15,37,5.40
2017,01,09,15,38,5.40
2017,01,09,15,39,5.40
2017,01,09,15,40,5.40
2017,01,09,15,41,5.40
2017,01,09,15,42,5.40
2017,01,09,15,43,5.40
2017,01,09,15,44,5.40
2017,01,09,15,45,5.50
2017,01,09,15,46,5.50
2017,01,09,15,47,5.50
2017,01,09,15,48,5.50
2017,01,09,15,49,5.50
2017,01,09,15,50,5.50
2017,01,09,15,51,5.50
2017,01,09,15,52,5.50
2017,01,09,15,53,5.50
2017,01,09,15,54,5.50
2017,01,09,15,55,5.50
2017,01,09,15,56,5.60
2017,01,09,15,57,5.50
2017,01,09,15,58,5.50
2017,01,09,15,59,5.50
2017,01,09,16,00,5.50
2017,01,09,16,01,5.50
2017,01,09,16,02,5.50
2017,01,09,16,03,5.50
2017,01,09,16,04,5.60
2017,01,09,16,05,5.60
2017,01,09,16,06,5.60
2017,01,09,16,07,5.60
2017,01,09,16,08,5.60
2017,01,09,16,09,5.60
2017,01,09,16,10,5.60
2017,01,09,16,11,5.60
2017,01,09,16,12,5.60
2017,01,09,16,13,5.50
2017,01,09,16,14,5.50
2017,01,09,16,15,5.50
2017,01,09,16,16,5.50
2017,01,09,16,17,5.50
2017,01,09,16,18,5.50
2017,01,09,16,19,5.40
2017,01,09,16,20,5.40
2017,01,09,16,21,5.40
2017,01,09,16,22,5.40
2017,01,09,16,23,5.40
2017,01,09,16,24,5.40
2017,01,09,16,25,5.40
2017,01,09,16,26,5.40
2017,01,09,16,27,5.40
2017,01,09,16,28,5.40
2017,01,09,16,29,5.30
2017,01,09,16,30,5.30
2017,01,09,16,31,5.30
2017,01,09,16,32,5.30
2017,01,09,16,33,5.30
2017,01,09,16,34,5.30
2017,01,09,16,35,5.30
2017,01,09,16,36,5.30
2017,01,09,16,37,5.30
2017,01,09,16,38,5.30
2017,01,09,16,39,5.20
2017,01,09,16,40,5.20
2017,01,09,16,41,5.20
2017,01,09,16,42,5.20
2017,01,09,16,43,5.20
2017,01,09,16,44,5.20
2017,01,09,16,45,5.20
2017,01,09,16,46,5.20
2017,01,09,16,47,5.20
2017,01,09,16,48,5.10
2017,01,09,16,49,5.10
2017,01,09,16,50,5.10
2017,01,09,16,51,5.10
2017,01,09,16,52,5.10
2017,01,09,16,53,5.10
2017,01,09,16,54,5.10
2017,01,09,16,55,5.10
2017,01,09,16,56,5.00
2017,01,09,16,57,5.00
2017,01,09,16,58,5.00
2017,01,09,16,59,5.00
2017,01,09,17,00,5.00
2017,01,09,17,01,5.00
2017,01,09,17,02,5.00
2017,01,09,17,03,4.90
2017,01,09,17,04,4.90
2017,01,09,17,05,4.90
2017,01,09,17,06,4.90
2017,01,09,17,07,4.90
2017,01,09,17,08,4.90
2017,01,09,17,09,4.90
2017,01,09,17,10,4.90
2017,01,09,17,11,4.90
2017,01,09,17,12,4.90
2017,01,09,17,13,4.90
2017,01,09,17,14,4.80
2017,01,09,17,15,4.80
2017,01,09,17,16,4.80
2017,01,09,17,17,4.80
2017,01,09,17,18,4.80
2017,01,09,17,19,4.80
2017,01,09,17,20,4.80
2017,01,09,17,21,4.80
2017,01,09,17,22,4.80
2017,01,09,17,23,4.80
2017,01,09,17,24,4.70
2017,01,09,17,25,4.70
2017,01,09,17,26,4.70
2017,01,09,17,27,4.70
2017,01,09,17,28,4.70
2017,01,09,17,29,4.70
2017,01,09,17,30,4.70
2017,01,09,17,31,4.70
2017,01,09,17,32,4.70
2017,01,09,17,33,4.70
2017,01,09,17,34,4.60
2017,01,09,17,35,4.60
2017,01,09,17,36,4.60
2017,01,09,17,37,4.60
2017,01,09,17,38,4.60
2017,01,09,17,39,4.60
2017,01,09,17,40,4.60
2017,01,09,17,41,4.60
2017,01,09,17,42,4.50
2017,01,09,17,43,4.50
2017,01,09,17,44,4.50
2017,01,09,17,45,4.50
2017,01,09,17,46,4.50
2017,01,09,17,47,4.50
2017,01,09,17,48,4.50
2017,01,09,17,49,4.50
2017,01,09,17,50,4.40
2017,01,09,17,51,4.40
2017,01,09,17,52,4.40
2017,01,09,17,53,4.40
2017,01,09,17,54,4.40
2017,01,09,17,55,4.50
2017,01,09,17,56,4.50
2017,01,09,17,57,4.50
2017,01,09,17,58,4.50
2017,01,09,17,59,4.50
2017,01,09,18,00,4.50
2017,01,09,18,01,4.40
2017,01,09,18,02,4.40
2017,01,09,18,03,4.50
2017,01,09,18,04,4.50
2017,01,09,18,05,4.50
2017,01,09,18,06,4.50
2017,01,09,18,07,4.50
2017,01,09,18,08,4.50
2017,01,09,18,09,4.50
2017,01,09,18,10,4.50
2017,01,09,18,11,4.50
2017,01,09,18,12,4.50
2017,01,09,18,13,4.50
2017,01,09,18,14,4.50
2017,01,09,18,15,4.50
2017,01,09,18,16,4.50
2017,01,09,18,17,4.50
2017,01,09,18,18,4.50
2017,01,09,18,19,4.50
2017,01,09,18,20,4.50
2017,01,09,18,21,4.50
2017,01,09,18,22,4.50
2017,01,09,18,23,4.50
2017,01,09,18,24,4.50
2017,01,09,18,25,4.50
2017,01,09,18,26,4.50
2017,01,09,18,27,4.50
2017,01,09,18,28,4.50
2017,01,09,18,29,4.50
2017,01,09,18,30,4.50
2017,01,09,18,31,4.50
2017,01,09,18,32,4.50
2017,01,09,18,33,4.50
2017,01,09,18,34,4.50
2017,01,09,18,35,4.50
2017,01,09,18,36,4.50
2017,01,09,18,37,4.50
2017,01,09,18,38,4.50
2017,01,09,18,39,4.50
2017,01,09,18,40,4.50
2017,01,09,18,41,4.50
2017,01,09,18,42,4.50
2017,01,09,18,43,4.60
2017,01,09,18,44,4.60
2017,01,09,18,45,4.60
2017,01,09,18,46,4.60
2017,01,09,18,47,4.60
2017,01,09,18,48,4.60
2017,01,09,18,49,4.60
2017,01,09,18,50,4.60
2017,01,09,18,51,4.70
2017,01,09,18,52,4.70
2017,01,09,18,53,4.70
2017,01,09,18,54,4.70
2017,01,09,18,55,4.70
2017,01,09,18,56,4.70
2017,01,09,18,57,4.70
2017,01,09,18,58,4.70
2017,01,09,18,59,4.80
2017,01,09,19,00,4.80
2017,01,09,19,01,4.80
2017,01,09,19,02,4.80
2017,01,09,19,03,4.80
2017,01,09,19,04,4.80
2017,01,09,19,05,4.80
2017,01,09,19,06,4.80
2017,01,09,19,07,4.80
2017,01,09,19,08,4.80
2017,01,09,19,09,4.80
2017,01,09,19,10,4.80
2017,01,09,19,11,4.80
2017,01,09,19,12,4.80
2017,01,09,19,13,4.80
2017,01,09,19,14,4.90
2017,01,09,19,15,4.90
2017,01,09,19,16,4.90
2017,01,09,19,17,4.90
2017,01,09,19,18,4.90
2017,01,09,19,19,4.90
2017,01,09,19,20,4.90
2017,01,09,19,21,4.90
2017,01,09,19,22,4.90
2017,01,09,19,23,4.90
2017,01,09,19,24,4.90
2017,01,09,19,25,4.80
2017,01,09,19,26,4.80
2017,01,09,19,27,4.80
2017,01,09,19,28,4.80
2017,01,09,19,29,4.80
2017,01,09,19,30,4.80
2017,01,09,19,31,4.80
2017,01,09,19,32,4.70
2017,01,09,19,33,4.70
2017,01,09,19,34,4.70
2017,01,09,19,35,4.70
2017,01,09,19,36,4.70
2017,01,09,19,37,4.60
2017,01,09,19,38,4.60
2017,01,09,19,39,4.60
2017,01,09,19,40,4.60
2017,01,09,19,41,4.60
2017,01,09,19,42,4.60
2017,01,09,19,43,4.50
2017,01,09,19,44,4.50
2017,01,09,19,45,4.50
2017,01,09,19,46,4.50
2017,01,09,19,47,4.50
2017,01,09,19,48,4.50
2017,01,09,19,49,4.50
2017,01,09,19,50,4.50
2017,01,09,19,51,4.50
2017,01,09,19,52,4.50
2017,01,09,19,53,4.60
2017,01,09,19,54,4.60
2017,01,09,19,55,4.60
2017,01,09,19,56,4.60
2017,01,09,19,57,4.60
2017,01,09,19,58,4.60
2017,01,09,19,59,4.60
2017,01,09,20,00,4.60
2017,01,09,20,01,4.60
2017,01,09,20,02,4.60
2017,01,09,20,03,4.60
2017,01,09,20,04,4.60
2017,01,09,20,05,4.60
2017,01,09,20,06,4.60
2017,01,09,20,07,4.60
2017,01,09,20,08,4.60
2017,01,09,20,09,4.60
2017,01,09,20,10,4.60
2017,01,09,20,11,4.50
2017,01,09,20,12,4.50
2017,01,09,20,13,4.40
2017,01,09,20,14,4.40
2017,01,09,20,15,4.40
2017,01,09,20,16,4.40
2017,01,09,20,17,4.40
2017,01,09,20,18,4.30
2017,01,09,20,19,4.30
2017,01,09,20,20,4.30
2017,01,09,20,21,4.30
2017,01,09,20,22,4.30
2017,01,09,20,23,4.30
2017,01,09,20,24,4.30
2017,01,09,20,25,4.30
2017,01,09,20,26,4.30
2017,01,09,20,27,4.30
2017,01,09,20,28,4.30
2017,01,09,20,29,4.20
2017,01,09,20,30,4.20
2017,01,09,20,31,4.20
2017,01,09,20,32,4.20
2017,01,09,20,33,4.20
2017,01,09,20,34,4.20
2017,01,09,20,35,4.20
2017,01,09,20,36,4.20
2017,01,09,20,37,4.20
2017,01,09,20,38,4.20
2017,01,09,20,39,4.20
2017,01,09,20,40,4.20
2017,01,09,20,41,4.20
2017,01,09,20,42,4.20
2017,01,09,20,43,4.20
2017,01,09,20,44,4.20
2017,01,09,20,45,4.20
2017,01,09,20,46,4.20
2017,01,09,20,47,4.20
2017,01,09,20,48,4.20
2017,01,09,20,49,4.20
2017,01,09,20,50,4.20
2017,01,09,20,51,4.20
2017,01,09,20,52,4.20
2017,01,09,20,53,4.20
2017,01,09,20,54,4.20
2017,01,09,20,55,4.10
2017,01,09,20,56,4.10
2017,01,09,20,57,4.10
2017,01,09,20,58,4.10
2017,01,09,20,59,4.10
2017,01,09,21,00,4.10
2017,01,09,21,01,4.10
2017,01,09,21,02,4.10
2017,01,09,21,03,4.10
2017,01,09,21,04,4.10
2017,01,09,21,05,4.10
2017,01,09,21,06,4.10
2017,01,09,21,07,4.10
2017,01,09,21,08,4.10
2017,01,09,21,09,4.10
2017,01,09,21,10,4.10
2017,01,09,21,11,4.10
2017,01,09,21,12,4.10
2017,01,09,21,13,4.10
2017,01,09,21,14,4.10
2017,01,09,21,15,4.10
2017,01,09,21,16,4.10
2017,01,09,21,17,4.10
2017,01,09,21,18,4.10
2017,01,09,21,19,4.20
2017,01,09,21,20,4.20
2017,01,09,21,21,4.20
2017,01,09,21,22,4.20
2017,01,09,21,23,4.20
2017,01,09,21,24,4.20
2017,01,09,21,25,4.20
2017,01,09,21,26,4.20
2017,01,09,21,27,4.20
2017,01,09,21,28,4.30
2017,01,09,21,29,4.30
2017,01,09,21,30,4.30
2017,01,09,21,31,4.30
2017,01,09,21,32,4.30
2017,01,09,21,33,4.30
2017,01,09,21,34,4.30
2017,01,09,21,35,4.30
2017,01,09,21,36,4.30
2017,01,09,21,37,4.30